Regional Weather Roundup
Issued by NWS

Home | Current Version | Previous Version | Text Only | Print | Product List | Glossary Off
Versions: 1 2 3 4 5 6 7 8 9 10 11 12 13 14 15 16 17 18 19 20 21 22 23 24 25 26 27 28 29 30 31 32 33 34 35 36 37 38 39 40 41 42 43 44 45 46 47 48 49 50

000
ASUS43 KOAX 060010
RWRNE

WEATHER ROUNDUP FOR NEBRASKA
NATIONAL WEATHER SERVICE OMAHA NE
700 PM CDT THU MAY 05 2016

NOTES: SATELLITE DATA IS BEING USED TO AUGMENT CLOUD COVER ABOVE
       12000 FEET.
       "FAIR" INDICATES FEW OR NO CLOUDS BELOW 12,000 FEET WITH NO
       SIGNIFICANT WEATHER AND/OR OBSTRUCTIONS TO VISIBILITY.

  * THESE STATIONS DO NOT REPORT WEATHER SUCH AS RAIN...SNOW OR FOG.

NEZ001>004-019>022-054>056-060100-
NEBRASKA PANHANDLE

CITY           SKY/WX    TMP DP  RH WIND       PRES   REMARKS
SCOTTSBLUFF    CLOUDY    81  41  24 E3        29.93F
6HR MIN TEMP:  77; 6HR MAX TEMP:  85;

ALLIANCE       MOSUNNY   77  45  32 S8        29.93F
6HR MIN TEMP:  77; 6HR MAX TEMP:  83;

CHADRON        PTSUNNY   82  51  34 S6        29.87F
6HR MIN TEMP:  79; 6HR MAX TEMP:  87;

KIMBALL        CLOUDY    78  33  19 S10       30.00F
SIDNEY         CLOUDY    79  32  18 SW9       29.99F
6HR MIN TEMP:  77; 6HR MAX TEMP:  84;

$$

NEZ057>060-069>072-079>082-060100-
SOUTHWEST NEBRASKA

CITY           SKY/WX    TMP DP  RH WIND       PRES   REMARKS
NORTH PLATTE   SUNNY     78  46  32 S14G22    29.96F
6HR MIN TEMP:  77; 6HR MAX TEMP:  82;

IMPERIAL       CLOUDY    79  44  28 S16       29.97F
6HR MIN TEMP:  78; 6HR MAX TEMP:  83;

MCCOOK         CLOUDY    76  48  37 S15       29.98F
6HR MIN TEMP:  76; 6HR MAX TEMP:  80;

OGALLALA       SUNNY     78  39  24 S14       29.96F
$$

NEZ005>010-023>029-035>040-094-060100-
NORTH CENTRAL NEBRASKA

CITY           SKY/WX    TMP DP  RH WIND       PRES   REMARKS
VALENTINE      SUNNY     84  39  20 S17       29.88F
6HR MIN TEMP:  81; 6HR MAX TEMP:  87;

AINSWORTH      SUNNY     80  46  29 S13       29.92F
BROKEN BOW     LGT RAIN  79  52  38 S13       29.97F
6HR MIN TEMP:  76; 6HR MAX TEMP:  81; 6HR PCP: TRACE;

O`NEILL        SUNNY     79  44  29 S9        29.95F
ORD            SUNNY     78  45  30 S10       29.95F
6HR MIN TEMP:  73; 6HR MAX TEMP:  80;

THEDFORD       SUNNY     82  46  28 S15G22    29.96S
$$

NEZ041-046>049-061>064-073>077-083>087-060100-
SOUTH CENTRAL NEBRASKA

CITY           SKY/WX    TMP DP  RH WIND       PRES   REMARKS
GRAND ISLAND   SUNNY     79  41  25 S9        29.98F
6HR MIN TEMP:  75; 6HR MAX TEMP:  81;

AURORA         SUNNY     79  39  24 S6        29.99S
HASTINGS       SUNNY     78  41  26 S8        29.99F
6HR MIN TEMP:  74; 6HR MAX TEMP:  79;

HEBRON         SUNNY     78  38  23 S6        30.00F
HOLDREGE       SUNNY     76  43  30 S10G16    30.00F
KEARNEY *      SUNNY     77  45  31 S12       30.00F
YORK           SUNNY     81  32  17 S3        29.99S
$$

NEZ011>018-030>034-042>045-060100-
NORTHEAST NEBRASKA

CITY           SKY/WX    TMP DP  RH WIND       PRES   REMARKS
NORFOLK        SUNNY     78  40  25 S8        29.95F
6HR MIN TEMP:  74; 6HR MAX TEMP:  81;

ALBION         SUNNY     77  43  29 SW8       29.97S
BLAIR          SUNNY     77  40  26 S8        30.00S
COLUMBUS *     SUNNY     79  37  22 S5        29.98F
FREMONT        SUNNY     75  42  30 SE8       29.99F
TEKAMAH        SUNNY     75  45  34 S9        29.97F
6HR MIN TEMP:  72; 6HR MAX TEMP:  77;

WAYNE          SUNNY     76  46  34 S9        29.96F
$$

NEZ050>053-065>068-078-088>093-060100-
SOUTHEAST NEBRASKA

CITY           SKY/WX    TMP DP  RH WIND       PRES   REMARKS
LINCOLN        SUNNY     78  41  26 S7        30.00F
6HR MIN TEMP:  74; 6HR MAX TEMP:  80;

OMAHA EPPLEY   PTSUNNY   76  43  30 SE8       29.99F
6HR MIN TEMP:  72; 6HR MAX TEMP:  79;

BEATRICE       SUNNY     77  36  22 CALM      30.00S
FALLS CITY     SUNNY     73  42  32 VRB3      30.01F
6HR MIN TEMP:  71; 6HR MAX TEMP:  76;

NEBRASKA CITY  SUNNY     73  39  29 SE5       30.01S
PLATTSMOUTH    SUNNY     76  40  26 SE5       30.01S
$$

NEZ044-045-051>053-067-060100-
OMAHA AREA

CITY           SKY/WX    TMP DP  RH WIND       PRES   REMARKS
OMAHA EPPLEY   PTSUNNY   76  43  30 SE8       29.99F
6HR MIN TEMP:  72; 6HR MAX TEMP:  79;

BLAIR          SUNNY     77  40  26 S8        30.00S
FREMONT        SUNNY     75  42  30 SE8       29.99F
MILLARD        SUNNY     76  43  30 SE5       29.99F
OFFUTT AFB     SUNNY     75  46  35 S5        29.99F
PLATTSMOUTH    SUNNY     76  40  26 SE5       30.01S
WAHOO          FAIR      77  40  25 SE14G20   29.98F
$$



USA.gov is the U.S. government's official web portal to all federal, state and local government web resources and services.